Regional Weather Roundup
Issued by NWS

Home | Current Version | Previous Version | Graphics & Text | Print | Product List | Glossary On
Versions: 1 2 3 4 5 6 7 8 9 10 11 12 13 14 15 16 17 18 19 20 21 22 23 24 25 26 27 28 29 30 31 32 33 34 35 36 37 38 39 40 41 42 43 44 45 46 47 48 49 50
000
ASUS45 KSLC 271410
RWRUT

UTAH REGIONAL WEATHER ROUNDUP
NATIONAL WEATHER SERVICE SALT LAKE CITY UT
800 AM MDT MON JUL 27 2015

UTZ001>011-023>025-271500-

NORTHERN UTAH

CITY           SKY/WX    TMP DP  RH WIND       PRES   REMARKS
BRIGHAM CITY   SUNNY     69  42  38 N13       29.83R
HILL AFB       SUNNY     74  42  32 SE6       29.85R
LOGAN            N/A    N/A N/A N/A MISG      29.85R
OGDEN          SUNNY     75  41  29 SE7       29.82S
PROVO AIRPORT  SUNNY     68  36  30 E12       29.88S
SALT LAKE CITY MOSUNNY   77  44  30 W8G23     29.82R
VERNAL         MOSUNNY   69  47  45 CALM      29.95S
WENDOVER       PTSUNNY   66  37  34 NW23G38   29.89S
HEBER CITY     SUNNY     70  34  26 CALM      29.94R
WEST JORDAN    MOSUNNY   75  34  22 S17G25    29.85S

$$

UTZ012>022-026-027-271500-

SOUTHERN/CENTRAL UTAH

CITY           SKY/WX    TMP DP  RH WIND       PRES   REMARKS
BLANDING       MOSUNNY   66  51  57 CALM      30.18R
BRYCE CANYON   SUNNY     61  30  31 SE10      30.18R
CEDAR CITY     SUNNY     70  28  21 S12       30.00R
DELTA          SUNNY     70  26  19 S12       29.91R
HANKSVILLE     MOSUNNY   70  37  30 CALM      29.95R
MILFORD        SUNNY     69  26  20 SW14      29.95R
MOAB/CYNLANDS  SUNNY     77  49  37 E7        29.93R
PRICE          SUNNY     68  41  37 CALM      30.00S
ST GEORGE      SUNNY     79  34  19 SW8       29.87R
KANAB          SUNNY     61  39  44 N5        30.08R

$$

REGIONAL REPORTS     COLORADO/ARIZONA

CITY           SKY/WX    TMP DP  RH WIND       PRES   REMARKS
CRAIG, CO      SUNNY     67  43  41 E10       30.06F
GRAND JUNCTION MOSUNNY   72  49  44 SE17G23   29.97R
RIFLE          MOSUNNY   60  49  66 CALM      30.05R
MONTROSE       CLOUDY    70  49  47 E9        30.09R
CORTEZ         SUNNY     69  51  52 CALM      30.13R
PAGE, AZ       SUNNY     78  37  22 S6        29.97R
GRAND CANYON   SUNNY     61  35  37 S5        30.18R
KINGMAN        SUNNY     74  31  20 SE10      29.93R
FLAGSTAFF      SUNNY     61  36  39 CALM      30.23R

$$

REGIONAL REPORTS    NEVADA/IDAHO/WYOMING

CITY           SKY/WX    TMP DP  RH WIND       PRES   REMARKS
LAS VEGAS, NV  SUNNY     82  37  20 S17G23    29.76R
ELY            MOSUNNY   64  29  26 W7        30.06R
ELKO           PTSUNNY   56  47  71 E6        30.06R
POCATELLO, ID  SUNNY     59  41  51 SW26G35   29.96R
BURLEY         CLOUDY    56  44  64 W23G32    29.98R
EVANSTON, WY   MOSUNNY   65  27  23 SW6       30.01R
ROCK SPRINGS   MOSUNNY   68  43  40 VRB5      30.01R
KEMMERER       SUNNY     64  27  24 S12G18    30.02S

$$


USA.gov is the U.S. government's official web portal to all federal, state and local government web resources and services.